Location: Kumla
(59.1265°N, 15.1401°E)
Time: 20:52:17
(UTC+01:00)

A-11 Canister half - Pass Details

Date: 10 December 2023
Orbit: 1526 x 1682 km, 47.3° (Epoch: 21 February)

Event Time Altitude Azimuth Distance (km) Brightness Sun altitude
Rises 17:20:18 0° 206° (SSW) 4,913 12.4 -15.6°
Reaches altitude 10° 17:24:08 10° 195° (SSW) 3,936 11.6 -16.1°
Maximum altitude 17:31:52 26° 144° (SE) 2,871 10.2 -17.0°
Enters shadow 17:37:09 17° 105° (ESE) 3,407 10.3 -17.7°
